This demonstration page uses our WeatherBlox Daily Observations layout. Learn more.

Left ArrowRight Arrow

41.55636, -103.73856

Hourly Observations for November 12, 2019

Temp ( °F °C ) Dew Point ( °F °C ) Humidity (%) Winds ( mph kmh ) Pressure ( in mb ) Visibility ( mi km ) Precip ( " mm )
12:58 am 00:58 Clear 10 -12.3 5 -14.8 82 82 SW 3 6 30.73 1041 10 16 N/A
1:58 am 01:58 Clear 12 -11.2 7 -13.9 81 81 SW 9 15 30.73 1041 10 16 N/A
2:58 am 02:58 Clear 13 -10.5 8 -13.4 79 79 SW 6 9 30.70 1040 10 16 N/A
3:58 am 03:58 Clear 14 -9.9 9 -12.8 80 80 SW 10 17 30.69 1039 10 16 N/A
4:58 am 04:58 Clear 12 -10.9 8 -13.6 81 81 SSW 12 19 30.67 1039 10 16 N/A
5:58 am 05:58 Clear 12 -11 7 -13.9 79 79 SW 10 17 30.63 1037 10 16 N/A
6:58 am 06:58 Clear 14 -10 8 -13.6 75 75 SW 10 17 30.59 1036 10 16 N/A
9:58 am 09:58 Clear 18 -8 10 -12.2 72 72 SSW 14 22 30.46 1032 10 16 N/A
10:58 am 10:58 Clear 21 -6.2 12 -11.3 68 68 SSW 14 22 30.42 1030 10 16 N/A
11:58 am 11:58 Clear 20 -6.5 11 -11.8 66 66 SW 8 13 30.40 1029 10 16 N/A
12:58 pm 12:58 Clear 22 -5.6 11 -11.6 63 63 SW 9 15 30.39 1029 10 16 N/A
1:58 pm 13:58 Sunny 24 -4.6 12 -11 61 61 SW 14 22 30.36 1028 10 16 N/A
2:58 pm 14:58 Sunny 27 -2.6 14 -9.9 58 58 SSW 15 24 30.35 1028 10 16 N/A
3:58 pm 15:58 Sunny 35 1.9 15 -9.4 43 43 SW 10 17 30.29 1026 10 16 N/A
4:58 pm 16:58 Sunny 43 6.3 15 -9.6 31 31 SW 17 28 30.23 1024 10 16 N/A
5:58 pm 17:58 Sunny 44 6.9 18 -7.9 34 34 SW 15 24 30.21 1023 10 16 N/A
6:58 pm 18:58 Sunny 48 8.9 21 -6.1 34 34 SW 16 26 30.14 1021 10 16 N/A
7:58 pm 19:58 Sunny 52 11 22 -5.4 31 31 WSW 14 22 30.09 1019 10 16 N/A
8:58 pm 20:58 Sunny 57 13.7 12 -10.9 17 17 NNW 9 15 30.04 1017 10 16 N/A
9:58 pm 21:58 Sunny 57 13.8 11 -11.6 16 16 WNW 8 13 30.02 1017 10 16 N/A
10:58 pm 22:58 Sunny 55 12.5 10 -12.1 17 17 WNW 12 19 30.00 1016 10 16 N/A
11:58 pm 23:58 Clear 46 7.6 12 -11 26 26 SW 9 15 30.02 1017 10 16 N/A

Powered by AerisWeather